DW0677 Weather Reports


time (UTC)temp
C
wind
direction
speed
KPH
gust
KPH
rain 1hr
cm
rain 24hr
cm
rain mn
cm
humidity
%
barometer
mb
20260507095346 11 329 1.6 4.8 0.00 0.00 0.00 74 1020.8
20260507094827 11 304 1.6 4.8 0.00 0.00 0.00 76 1020.9
20260507094328 11 295 1.6 3.2 0.00 0.00 0.00 75 1020.9
20260507093827 11 313 0.0 3.2 0.00 0.00 0.00 76 1020.9
20260507093331 11 311 1.6 3.2 0.00 0.00 0.00 76 1021.0
20260507092833 11 307 1.6 3.2 0.00 0.00 0.00 76 1021.0
20260507092333 11 309 0.0 3.2 0.00 0.00 0.00 76 1021.1
20260507091856 11 309 0.0 3.2 0.00 0.00 0.00 76 1021.1
20260507091339 11 305 0.0 3.2 0.00 0.00 0.00 76 1021.2
20260507090840 11 311 1.6 3.2 0.00 0.00 0.00 77 1021.2
20260507090342 11 280 0.0 3.2 0.00 0.00 0.00 77 1021.2
20260507085825 11 271 1.6 3.2 0.00 0.00 0.00 77 1021.2
20260507085347 11 301 0.0 3.2 0.00 0.00 0.00 78 1021.1
20260507084827 11 315 0.0 3.2 0.00 0.00 0.00 77 1021.2
20260507084328 11 315 0.0 3.2 0.00 0.00 0.00 78 1021.1
20260507083835 11 299 0.0 3.2 0.00 0.00 0.00 77 1021.2
20260507083344 11 290 0.0 3.2 0.00 0.00 0.00 77 1021.1
20260507082826 11 294 0.0 4.8 0.00 0.00 0.00 77 1021.1
20260507082329 11 294 0.0 4.8 0.00 0.00 0.00 77 1021.2
20260507081852 11 319 1.6 3.2 0.00 0.00 0.00 77 1021.1
20260507081342 11 313 0.0 3.2 0.00 0.00 0.00 77 1021.1
20260507080841 12 311 1.6 3.2 0.00 0.00 0.00 76 1021.1
20260507080403 12 283 0.0 3.2 0.00 0.00 0.00 77 1021.1
20260507075844 12 283 0.0 3.2 0.00 0.00 0.00 77 1021.1
20260507075403 12 273 1.6 3.2 0.00 0.00 0.00 76 1021.1
20260507074844 12 329 0.0 3.2 0.00 0.00 0.00 76 1021.1
20260507074346 12 330 0.0 3.2 0.00 0.00 0.00 76 1021.1
20260507073845 12 330 0.0 4.8 0.00 0.00 0.00 77 1021.1
20260507073329 12 325 0.0 3.2 0.00 0.00 0.00 77 1021.1
20260507072833 12 320 0.0 3.2 0.00 0.00 0.00 77 1021.0
20260507072357 12 320 0.0 3.2 0.00 0.00 0.00 77 1021.0
20260507071837 12 320 0.0 3.2 0.00 0.00 0.00 77 1021.0
20260507071336 12 320 0.0 3.2 0.00 0.00 0.00 77 1021.0
20260507070836 12 321 0.0 3.2 0.00 0.00 0.00 77 1020.9
20260507070358 12 317 1.6 3.2 0.00 0.00 0.00 77 1021.0
20260507065833 12 316 1.6 3.2 0.00 0.00 0.00 77 1021.0
20260507065336 12 311 0.0 3.2 0.00 0.00 0.00 77 1020.9
20260507064835 12 311 1.6 3.2 0.00 0.00 0.00 77 1021.0
20260507064337 12 311 1.6 3.2 0.00 0.00 0.00 78 1021.0
20260507063840 11 308 0.0 3.2 0.00 0.00 0.00 77 1021.0
20260507063341 11 301 0.0 3.2 0.00 0.00 0.00 77 1021.0
20260507062841 11 298 1.6 3.2 0.00 0.00 0.00 78 1021.1
20260507062341 11 295 0.0 4.8 0.00 0.00 0.00 78 1021.0
20260507061825 11 320 1.6 4.8 0.00 0.00 0.00 78 1021.0
20260507061328 11 293 1.6 3.2 0.00 0.00 0.00 78 1021.1
20260507060829 11 299 0.0 3.2 0.00 0.00 0.00 79 1021.1
20260507060351 11 299 0.0 3.2 0.00 0.00 0.00 78 1021.1
20260507055833 11 296 0.0 3.2 0.00 0.00 0.00 78 1021.1
20260507055334 11 296 1.6 3.2 0.00 0.00 0.00 78 1021.1
20260507054834 11 320 0.0 3.2 0.00 0.00 0.00 78 1021.1
20260507054333 12 320 0.0 3.2 0.00 0.00 0.00 77 1021.1
20260507053838 12 320 0.0 3.2 0.00 0.00 0.00 77 1021.0
20260507053344 12 319 1.6 3.2 0.00 0.00 0.00 77 1021.1
20260507052847 12 318 1.6 3.2 0.00 0.00 0.00 76 1021.1
20260507052347 12 319 0.0 3.2 0.00 0.00 0.00 76 1021.1
20260507051828 12 318 1.6 3.2 0.00 0.00 0.00 76 1021.1
20260507051328 12 312 1.6 3.2 0.00 0.00 0.00 76 1021.2
20260507050848 12 330 0.0 3.2 0.00 0.00 0.00 75 1021.1
20260507050330 12 321 0.0 3.2 0.00 0.00 0.00 75 1021.1
20260507045829 12 339 1.6 4.8 0.00 0.00 0.00 75 1021.1
20260507045330 12 325 0.0 4.8 0.00 0.00 0.00 75 1021.2
20260507044833 12 333 0.0 4.8 0.00 0.00 0.00 75 1021.1
20260507044334 12 334 1.6 4.8 0.00 0.00 0.00 74 1021.1
20260507043842 12 325 3.2 4.8 0.00 0.00 0.00 74 1021.1
20260507043403 12 334 1.6 4.8 0.00 0.00 0.00 74 1021.1
20260507042840 13 318 1.6 6.4 0.00 0.00 0.00 74 1021.1
20260507042403 13 318 3.2 6.4 0.00 0.00 0.00 74 1021.1
20260507041823 13 328 1.6 6.4 0.00 0.00 0.00 74 1021.0
20260507041330 13 317 1.6 6.4 0.00 0.00 0.00 74 1021.0
20260507040909 13 327 3.2 6.4 0.00 0.00 0.00 73 1021.0
20260507040349 13 326 1.6 6.4 0.00 0.00 0.00 74 1021.0
20260507035827 13 330 1.6 4.8 0.00 0.00 0.00 74 1020.9
20260507035352 13 328 0.0 4.8 0.00 0.00 0.00 73 1020.9
20260507034838 13 328 1.6 8.0 0.00 0.00 0.00 74 1020.8
20260507034339 13 331 1.6 8.0 0.00 0.00 0.00 73 1020.8
20260507033839 13 319 0.0 4.8 0.00 0.00 0.00 74 1020.7
20260507033341 13 315 1.6 6.4 0.00 0.00 0.00 74 1020.6
20260507032839 13 322 0.0 4.8 0.00 0.00 0.00 73 1020.5
20260507032340 14 320 3.2 4.8 0.00 0.00 0.00 74 1020.5
20260507031847 14 340 0.0 4.8 0.00 0.00 0.00 73 1020.4
20260507031326 14 326 1.6 4.8 0.00 0.00 0.00 73 1020.3
20260507030909 14 326 1.6 4.8 0.00 0.00 0.00 73 1020.3
20260507030349 14 305 1.6 3.2 0.00 0.00 0.00 74 1020.2
20260507025847 15 322 1.6 3.2 0.00 0.00 0.00 73 1020.1
20260507025347 15 332 1.6 4.8 0.00 0.00 0.00 74 1020.0
20260507024846 15 302 1.6 4.8 0.00 0.00 0.00 73 1019.9
20260507024405 15 323 1.6 4.8 0.00 0.00 0.00 73 1019.9
20260507023842 15 328 3.2 4.8 0.00 0.00 0.00 73 1019.9
20260507023345 15 332 1.6 6.4 0.00 0.00 0.00 73 1019.9
20260507022907 15 309 3.2 6.4 0.00 0.00 0.00 73 1019.9
20260507022327 15 324 0.0 3.2 0.00 0.00 0.00 74 1019.8
20260507021835 15 320 1.6 3.2 0.00 0.00 0.00 74 1019.8
20260507021342 15 307 0.0 4.8 0.00 0.00 0.00 73 1019.8
20260507020841 15 326 1.6 6.4 0.00 0.00 0.00 72 1019.8
20260507020328 15 322 1.6 6.4 0.00 0.00 0.00 72 1019.9
20260507015844 15 315 3.2 6.4 0.00 0.00 0.00 71 1019.9
20260507015402 15 320 0.0 3.2 0.00 0.00 0.00 71 1019.9
20260507014846 16 316 1.6 3.2 0.00 0.00 0.00 71 1019.9
20260507014328 16 318 1.6 3.2 0.00 0.00 0.00 71 1019.9
20260507013848 16 314 1.6 3.2 0.00 0.00 0.00 71 1019.9
20260507013348 16 302 1.6 3.2 0.00 0.00 0.00 71 1019.9
20260507012846 16 324 1.6 6.4 0.00 0.00 0.00 71 1020.0
20260507012346 16 313 3.2 6.4 0.00 0.00 0.00 70 1020.0
20260507011906 16 315 1.6 4.8 0.00 0.00 0.00 70 1020.0
20260507011345 16 318 1.6 4.8 0.00 0.00 0.00 70 1019.9
20260507010342 16 324 3.2 8.0 0.00 0.00 0.00 69 1019.9
20260507005840 17 328 1.6 3.2 0.00 0.00 0.00 70 1019.9
20260507005340 17 323 1.6 4.8 0.00 0.00 0.00 68 1020.0
20260507004841 17 328 1.6 4.8 0.00 0.00 0.00 69 1019.9
20260507004404 17 303 0.0 4.8 0.00 0.00 0.00 68 1019.8
20260507003843 17 298 1.6 4.8 0.00 0.00 0.00 70 1019.9
20260507003344 17 315 1.6 3.2 0.00 0.00 0.00 67 1019.7
20260507002847 17 318 1.6 4.8 0.00 0.00 0.00 68 1019.8
20260507002337 17 330 3.2 4.8 0.00 0.00 0.00 69 1019.7
20260507001841 17 326 1.6 4.8 0.00 0.00 0.00 69 1019.7
20260507001401 17 327 1.6 4.8 0.00 0.00 0.00 70 1019.7
20260507000844 18 298 1.6 3.2 0.00 0.00 0.00 68 1019.7
20260507000406 18 324 1.6 3.2 0.00 0.00 0.00 70 1019.7
20260506235843 18 324 1.6 3.2 0.00 0.00 0.00 69 1019.7
20260506235341 18 325 0.0 3.2 0.00 0.00 0.00 70 1019.7
20260506234840 18 303 1.6 3.2 0.00 0.00 0.00 69 1019.6
20260506234340 18 313 0.0 3.2 0.00 0.00 0.00 69 1019.7
20260506233843 18 312 1.6 3.2 0.00 0.00 0.00 70 1019.6
20260506233402 18 269 0.0 3.2 0.00 0.00 0.00 70 1019.7
20260506232901 18 329 0.0 3.2 0.00 0.00 0.00 69 1019.7
20260506232339 18 320 0.0 3.2 0.00 0.00 0.00 70 1019.6
20260506231859 18 305 0.0 3.2 0.00 0.00 0.00 70 1019.6
20260506231338 18 305 1.6 3.2 0.00 0.00 0.00 71 1019.7
20260506230840 18 53 0.0 3.2 0.00 0.00 0.00 70 1019.7
20260506230345 18 64 0.0 3.2 0.00 0.00 0.00 70 1019.8
20260506225844 18 335 0.0 3.2 0.00 0.00 0.00 70 1019.8
20260506225348 18 335 0.0 3.2 0.00 0.00 0.00 70 1019.9
20260506224848 18 335 1.6 3.2 0.00 0.00 0.00 68 1019.9
20260506224407 18 20 0.0 3.2 0.00 0.00 0.00 69 1019.9
20260506223826 18 18 0.0 4.8 0.00 0.00 0.00 71 1020.0
20260506223329 18 87 1.6 4.8 0.00 0.00 0.00 71 1020.1
20260506222828 18 328 0.0 3.2 0.00 0.00 0.00 71 1020.1
20260506222408 18 312 0.0 3.2 0.00 0.00 0.00 71 1020.2
20260506221847 18 313 0.0 3.2 0.00 0.00 0.00 70 1020.3
20260506221406 18 313 1.6 3.2 0.00 0.00 0.00 70 1020.3
20260506220844 18 318 0.0 3.2 0.00 0.00 0.00 72 1020.2
20260506220406 17 318 0.0 3.2 0.00 0.00 0.00 71 1020.2
20260506215843 17 318 0.0 3.2 0.00 0.00 0.00 72 1020.2
20260506215343 17 318 0.0 3.2 0.00 0.00 0.00 71 1020.2
20260506214907 17 318 0.0 3.2 0.00 0.00 0.00 70 1020.3
20260506214346 18 316 0.0 3.2 0.00 0.00 0.00 69 1020.2
20260506213846 18 316 0.0 3.2 0.00 0.00 0.00 70 1020.2
20260506213328 17 316 0.0 3.2 0.00 0.00 0.00 69 1020.3
20260506212834 18 321 0.0 3.2 0.00 0.00 0.00 70 1020.3
20260506212353 18 318 1.6 3.2 0.00 0.00 0.00 69 1020.3
20260506211832 18 293 0.0 3.2 0.00 0.00 0.00 70 1020.4
20260506211335 18 103 1.6 3.2 0.00 0.00 0.00 70 1020.4
20260506210835 18 359 0.0 3.2 0.00 0.00 0.00 71 1020.6
20260506210336 17 22 0.0 3.2 0.00 0.00 0.00 71 1020.6
20260506205839 17 269 0.0 3.2 0.00 0.00 0.00 71 1020.6
20260506205324 17 254 0.0 3.2 0.00 0.00 0.00 73 1020.6
20260506204831 16 26 0.0 3.2 0.00 0.00 0.00 75 1020.7
20260506204329 17 313 1.6 3.2 0.00 0.00 0.00 73 1020.7
20260506203908 17 76 0.0 3.2 0.00 0.00 0.00 72 1020.7
20260506203408 17 106 0.0 3.2 0.00 0.00 0.00 74 1020.7
20260506202826 17 157 0.0 3.2 0.00 0.00 0.00 75 1020.7
20260506202329 17 160 0.0 3.2 0.00 0.00 0.00 73 1020.6
20260506201847 16 187 0.0 3.2 0.00 0.00 0.00 74 1020.6
20260506201327 16 46 0.0 3.2 0.00 0.00 0.00 74 1020.6
20260506200836 16 64 1.6 3.2 0.00 0.00 0.00 77 1020.6
20260506200343 16 26 0.0 3.2 0.00 0.00 0.00 75 1020.6
20260506195902 16 306 0.0 3.2 0.00 0.00 0.00 75 1020.6
20260506195339 16 74 0.0 3.2 0.00 0.00 0.00 76 1020.8
20260506194840 16 83 0.0 3.2 0.00 0.00 0.00 75 1020.8
20260506194339 15 81 0.0 3.2 0.00 0.00 0.00 76 1020.8
20260506193839 15 81 0.0 3.2 0.00 0.00 0.00 78 1020.9
20260506193337 15 280 0.0 3.2 0.00 0.00 0.00 77 1021.0
20260506192836 15 255 0.0 3.2 0.00 0.00 0.00 77 1021.0
20260506192356 15 255 0.0 3.2 0.00 0.00 0.00 76 1021.0
20260506191835 15 255 0.0 3.2 0.00 0.00 0.00 77 1021.0
20260506191354 15 243 0.0 3.2 0.00 0.00 0.00 76 1021.0
20260506190833 15 236 1.6 3.2 0.00 0.00 0.00 74 1020.9
20260506190332 15 218 1.6 3.2 0.00 0.00 0.00 77 1020.9
20260506185830 15 35 0.0 3.2 0.00 0.00 0.00 76 1020.9
20260506185329 15 18 0.0 3.2 0.00 0.00 0.00 74 1020.9
20260506184835 15 18 0.0 3.2 0.00 0.00 0.00 76 1020.8
20260506184339 15 18 0.0 3.2 0.00 0.00 0.00 76 1020.8
20260506183839 15 33 0.0 3.2 0.00 0.00 0.00 76 1020.9
20260506183341 15 93 0.0 3.2 0.00 0.00 0.00 78 1020.9
20260506182841 15 93 1.6 3.2 0.00 0.00 0.00 78 1020.9
20260506182400 15 75 1.6 3.2 0.00 0.00 0.00 76 1020.7
20260506181838 14 130 0.0 3.2 0.00 0.00 0.00 76 1020.7
20260506181341 14 4 0.0 3.2 0.00 0.00 0.00 75 1020.8
20260506180842 14 294 0.0 3.2 0.00 0.00 0.00 75 1020.8
20260506180348 15 282 0.0 3.2 0.00 0.00 0.00 76 1020.8
20260506175827 15 286 0.0 3.2 0.00 0.00 0.00 76 1020.9
20260506175351 15 283 0.0 3.2 0.00 0.00 0.00 77 1020.8
20260506174836 15 272 1.6 3.2 0.00 0.00 0.00 76 1020.7
20260506174336 14 302 0.0 3.2 0.00 0.00 0.00 76 1020.7
20260506173835 15 302 0.0 3.2 0.00 0.00 0.00 77 1020.7
20260506173342 15 302 0.0 3.2 0.00 0.00 0.00 76 1020.6
20260506172901 15 302 0.0 3.2 0.00 0.00 0.00 77 1020.6
20260506172400 15 291 0.0 3.2 0.00 0.00 0.00 76 1020.6
20260506171838 15 282 0.0 3.2 0.00 0.00 0.00 76 1020.5
20260506171341 14 282 0.0 3.2 0.00 0.00 0.00 77 1020.5
20260506170842 14 282 0.0 3.2 0.00 0.00 0.00 77 1020.5
20260506170341 14 282 0.0 3.2 0.00 0.00 0.00 77 1020.5
20260506165840 14 270 0.0 3.2 0.00 0.00 0.00 78 1020.6
20260506165340 13 270 0.0 3.2 0.00 0.00 0.00 78 1020.5
20260506164838 13 305 0.0 3.2 0.00 0.00 0.00 78 1020.5
20260506164339 13 305 0.0 3.2 0.00 0.00 0.00 78 1020.6
20260506163843 13 305 1.6 3.2 0.00 0.00 0.00 78 1020.6
20260506163347 13 284 0.0 3.2 0.00 0.00 0.00 78 1020.6
20260506162846 13 262 1.6 3.2 0.00 0.00 0.00 77 1020.5
20260506162326 13 272 1.6 3.2 0.00 0.00 0.00 79 1020.5
20260506161830 13 272 0.0 3.2 0.00 0.00 0.00 78 1020.6
20260506161334 13 272 0.0 3.2 0.00 0.00 0.00 78 1020.4
20260506160834 13 270 0.0 3.2 0.00 0.00 0.00 78 1020.3
20260506160335 13 290 0.0 3.2 0.00 0.00 0.00 78 1020.3
20260506155834 14 290 0.0 3.2 0.00 0.00 0.00 78 1020.3
20260506155338 14 290 1.6 3.2 0.00 0.00 0.00 79 1020.0
20260506154900 13 91 0.0 3.2 0.00 0.00 0.00 77 1019.9
20260506154405 14 64 0.0 3.2 0.00 0.00 0.00 80 1019.7
20260506153828 13 64 1.6 3.2 0.00 0.00 0.00 80 1019.8
20260506153351 13 97 1.6 3.2 0.00 0.00 0.00 80 1019.9
20260506152829 12 317 0.0 3.2 0.00 0.00 0.00 83 1020.0
20260506152330 12 316 0.0 3.2 0.00 0.00 0.00 82 1020.1
20260506151830 12 316 0.0 3.2 0.00 0.00 0.00 82 1020.4
20260506151330 12 316 0.0 3.2 0.00 0.00 0.00 82 1020.5
20260506150836 12 314 1.6 3.2 0.00 0.00 0.00 82 1020.5
20260506150340 12 314 0.0 3.2 0.00 0.00 0.00 83 1020.5
20260506145847 12 302 0.0 3.2 0.00 0.00 0.00 83 1020.5
20260506145331 12 302 0.0 3.2 0.00 0.00 0.00 83 1020.5
20260506144837 12 302 1.6 3.2 0.00 0.00 0.00 83 1020.5
20260506144337 12 315 0.0 3.2 0.00 0.00 0.00 83 1020.2
20260506143857 12 313 1.6 3.2 0.00 0.00 0.00 83 1020.2
20260506143336 12 313 0.0 3.2 0.00 0.00 0.00 83 1020.3
20260506142855 12 315 1.6 3.2 0.00 0.00 0.00 84 1020.2
20260506142341 12 315 0.0 3.2 0.00 0.00 0.00 83 1020.1
20260506141901 12 315 1.6 3.2 0.00 0.00 0.00 84 1019.9
20260506141340 12 309 0.0 3.2 0.00 0.00 0.00 84 1019.8
20260506140839 12 309 0.0 3.2 0.00 0.00 0.00 84 1019.7
20260506140340 12 309 0.0 3.2 0.00 0.00 0.00 84 1019.7
20260506135838 12 309 0.0 3.2 0.00 0.00 0.00 84 1019.7
20260506135336 12 309 0.0 3.2 0.00 0.00 0.00 84 1019.7
20260506134836 12 308 0.0 3.2 0.00 0.00 0.00 84 1019.6
20260506134342 12 298 0.0 3.2 0.00 0.00 0.00 85 1019.6
20260506133841 12 292 0.0 3.2 0.00 0.00 0.00 84 1019.5
20260506133345 12 308 0.0 3.2 0.00 0.00 0.00 85 1019.5
20260506132844 12 314 0.0 3.2 0.00 0.00 0.00 85 1019.5
20260506132404 12 314 0.0 3.2 0.00 0.00 0.00 85 1019.5
20260506131824 12 314 1.6 3.2 0.00 0.00 0.00 84 1019.4
20260506131351 12 315 0.0 3.2 0.00 0.00 0.00 85 1019.3
20260506130830 12 315 0.0 3.2 0.00 0.00 0.00 85 1019.2
20260506130349 12 315 0.0 3.2 0.00 0.00 0.00 84 1019.1
20260506125848 12 315 0.0 3.2 0.00 0.00 0.00 84 1019.1
20260506125328 12 315 0.0 3.2 0.00 0.00 0.00 85 1019.1
20260506124829 12 315 0.0 3.2 0.00 0.00 0.00 85 1019.0
20260506124328 12 315 0.0 3.2 0.00 0.00 0.00 84 1018.9
20260506123829 12 315 0.0 3.2 0.00 0.00 0.00 84 1018.9
20260506123333 12 314 0.0 3.2 0.00 0.00 0.00 84 1018.9
20260506122835 12 314 0.0 3.2 0.00 0.00 0.00 84 1018.9
20260506122335 12 314 0.0 3.2 0.00 0.00 0.00 84 1018.9
20260506121834 12 314 0.0 3.2 0.00 0.00 0.00 84 1018.9
20260506121338 12 314 0.0 3.2 0.00 0.00 0.00 83 1018.9
20260506120837 12 314 1.6 3.2 0.00 0.00 0.00 84 1018.9
20260506120359 12 317 0.0 3.2 0.00 0.00 0.00 84 1018.9
20260506115859 12 317 0.0 3.2 0.00 0.00 0.00 83 1018.9
20260506115340 12 317 0.0 3.2 0.00 0.00 0.00 83 1018.8
20260506114841 12 317 0.0 3.2 0.00 0.00 0.00 83 1018.8
20260506114344 12 317 0.0 3.2 0.00 0.00 0.00 83 1018.7
20260506113825 12 317 0.0 3.2 0.00 0.00 0.00 83 1018.7
20260506113348 12 321 0.0 3.2 0.00 0.00 0.00 83 1018.6
20260506112848 12 321 0.0 3.2 0.00 0.00 0.00 83 1018.6
20260506112347 12 321 0.0 3.2 0.00 0.00 0.00 83 1018.6
20260506111830 12 300 0.0 3.2 0.00 0.00 0.00 83 1018.7
20260506111352 12 316 0.0 3.2 0.00 0.00 0.00 83 1018.6
20260506110850 12 318 0.0 3.2 0.00 0.00 0.00 83 1018.5
20260506110349 12 318 0.0 3.2 0.00 0.00 0.00 83 1018.4
20260506105848 12 318 0.0 3.2 0.00 0.00 0.00 83 1018.4
20260506105408 12 318 0.0 3.2 0.00 0.00 0.00 83 1018.2
20260506104846 12 318 0.0 3.2 0.00 0.00 0.00 83 1018.2
20260506104326 12 318 0.0 3.2 0.00 0.00 0.00 83 1018.2
20260506103828 12 318 0.0 3.2 0.00 0.00 0.00 83 1018.1
20260506103351 12 318 0.0 3.2 0.00 0.00 0.00 83 1018.1
20260506102833 12 317 0.0 3.2 0.00 0.00 0.00 83 1018.0
20260506102334 12 318 0.0 3.2 0.00 0.00 0.00 83 1018.0
20260506101840 12 318 0.0 3.2 0.00 0.00 0.00 83 1017.8
20260506101338 13 318 0.0 3.2 0.00 0.00 0.00 83 1017.8
20260506100841 13 318 0.0 3.2 0.00 0.00 0.00 83 1017.7
20260506100345 13 318 0.0 3.2 0.00 0.00 0.00 83 1017.7
20260506095842 13 318 0.0 3.2 0.00 0.00 0.00 83 1017.7